Location: Newark
(34.9500°N, 139.9667°E)
Time: 22:33:42
(UTC+00:00)

Vanguard 2 Rocket - Pass Details

Date: 09 December 2019
Orbit: 554 x 3326 km, 32.9° (Epoch: 24 January)

Event Time Altitude Azimuth Distance (km) Brightness Sun altitude
Rises 08:21:39 0° 237° (WSW) 6,837 13.2 -10.8°
Reaches altitude 10° 08:26:51 10° 234° (SW) 5,485 12.2 -11.8°
Maximum altitude 08:41:18 56° 162° (SSE) 2,109 8.7 -14.6°
Enters shadow 08:47:51 19° 92° (E) 2,794 8.8 -15.9°
Drops below altitude 10° 08:49:30 10° 87° (E) 3,237 - -16.2°
Sets 08:51:47 0° 82° (E) 3,935 - -16.6°
